Stations météo

Publicité
Trappes, France (7145): Température de l'air & dewpoint: 13.04.2019 04:00:00 - 19.04.2019 04:00:00 (CEST)Trappes, France (7145): Température de l'air 5cm: 13.04.2019 04:00:00 - 19.04.2019 04:00:00 (CEST)Trappes, France (7145): Température de l'air -20cm & Température de l'air -100cm: 13.04.2019 04:00:00 - 19.04.2019 04:00:00 (CEST)Trappes, France (7145): Vitesse du vent & gusts: 13.04.2019 04:00:00 - 19.04.2019 04:00:00 (CEST)Trappes, France (7145): Direction du vent: 13.04.2019 04:00:00 - 19.04.2019 04:00:00 (CEST)Trappes, France (7145): reduced air pressure: 13.04.2019 04:00:00 - 19.04.2019 04:00:00 (CEST)Trappes, France (7145): visibility: 13.04.2019 04:00:00 - 19.04.2019 04:00:00 (CEST)Trappes, France (7145): Ensoleillement: 13.04.2019 04:00:00 - 19.04.2019 04:00:00 (CEST)Trappes, France (7145): Quantités de précipitations: 13.04.2019 04:00:00 - 19.04.2019 04:00:00 (CEST)
Date & Time tt [°C] td [°C] tt 5cm [°C] tt -20cm [°C] tt -100cm [°C] ff [km/h] ff [knt] fx [km/h] fx [knt] dd ppp [hPa] vv [km] sd [min] rr [mm]
19.04.2019 04:00:00 12,0 5,6 6,8 12,0 9,9 6 3 10 5 NE 1022,0 20 0 0,0
19.04.2019 03:00:00 11,8 5,4 6,7 12,1 9,9 6 3 11 6 NE 1021,9 20 0 0,0
19.04.2019 02:00:00 13,6 5,5 8,5 12,3 9,9 6 3 14 7 NE 1021,6 20 0 0,0
19.04.2019 01:00:00 14,1 5,7 9,1 12,4 9,9 6 3 12 6 NE 1021,5 20 0 0,0
19.04.2019 00:00:00 15,2 5,9 10,1 12,5 9,9 7 4 12 6 NE 1021,3 20 0 0,0
18.04.2019 23:00:00 16,0 6,1 8,8 12,6 9,9 5 3 10 5 NE 1020,9 20 0 0,0
18.04.2019 22:00:00 17,4 6,3 12,6 12,8 9,9 7 4 11 6 E 1020,4 20 0 0,0
18.04.2019 21:00:00 18,6 7,1 15,8 12,7 9,9 8 4 18 10 E 1019,9 20 0 0,0
18.04.2019 20:00:00 19,9 8,2 18,5 12,6 9,8 9 5 22 12 E 1019,2 20 16 0,0
18.04.2019 19:00:00 21,6 7,8 22,4 12,5 9,8 9 5 27 15 ESE 1018,6 20 51 0,0
18.04.2019 18:00:00 21,6 7,8 22,7 12,3 9,9 13 7 29 16 ESE 1018,4 20 40 0,0
18.04.2019 17:00:00 21,6 7,8 22,6 12,0 9,8 13 7 29 16 SE 1018,3 17 42 0,0
18.04.2019 16:00:00 21,4 8,0 23,7 11,8 9,8 15 8 34 18 ESE 1018,3 20 60 0,0
18.04.2019 15:00:00 21,0 4,9 23,9 11,5 9,8 18 10 32 17 ESE 1018,3 20 60 0,0
18.04.2019 14:00:00 21,1 4,2 23,8 11,2 9,8 16 9 30 16 ESE 1018,2 20 60 0,0
18.04.2019 13:00:00 19,7 8,7 22,9 10,9 9,8 18 10 33 18 ENE 1018,4 20 60 0,0
18.04.2019 12:00:00 18,5 9,6 23,0 10,7 9,8 14 7 23 12 ENE 1018,7 19 60 0,0
18.04.2019 11:00:00 17,3 9,2 18,9 10,7 9,8 9 5 20 11 E 1018,8 19 60 0,0
18.04.2019 10:00:00 15,2 8,7 15,9 10,7 9,8 10 6 21 11 ESE 1019,2 20 60 0,0
18.04.2019 09:00:00 13,6 8,6 12,6 10,7 9,8 11 6 21 12 E 1019,2 20 60 0,0
18.04.2019 08:00:00 11,5 8,4 9,0 10,7 9,8 9 5 14 8 ENE 1019,1 19 23 0,0
18.04.2019 07:00:00 10,5 7,7 8,7 10,8 9,8 9 5 13 7 ENE 1018,9 20 0 0,0
18.04.2019 06:00:00 11,5 7,8 9,9 10,9 9,8 7 4 14 8 ENE 1018,4 20 0 0,0
18.04.2019 05:00:00 11,5 7,8 9,1 11,0 9,8 9 5 13 7 ENE 1018,6 20 0 0,0
18.04.2019 04:00:00 11,7 7,8 9,3 11,1 9,8 5 3 13 7 E 1018,6 20 0 0,0
18.04.2019 03:00:00 12,3 7,6 10,6 11,2 9,8 6 4 14 7 E 1018,6 20 0 0,0
18.04.2019 02:00:00 12,4 7,3 10,6 11,3 9,8 7 4 17 9 E 1019,1 20 0 0,0
18.04.2019 01:00:00 13,3 7,1 11,7 11,4 9,8 8 4 21 11 E 1018,9 20 0 0,0
18.04.2019 00:00:00 13,7 7,0 11,5 11,4 9,8 12 7 22 12 E 1018,6 20 0 0,0
17.04.2019 23:00:00 13,6 6,2 9,9 11,5 9,8 10 5 16 8 E 1018,6 20 0 0,0
17.04.2019 22:00:00 13,1 5,5 9,5 11,5 9,8 7 4 13 7 E 1018,8 20 0 0,0
17.04.2019 21:00:00 15,0 5,8 12,8 11,5 9,8 7 4 22 12 E 1018,4 20 0 0,0
17.04.2019 20:00:00 16,2 5,2 15,4 11,5 9,8 9 5 25 13 ESE 1017,9 20 46 0,0
17.04.2019 19:00:00 17,4 2,9 19,2 11,3 9,8 12 7 26 14 ESE 1017,6 20 60 0,0
17.04.2019 18:00:00 17,9 4,5 21,6 11,1 9,8 13 7 27 15 E 1017,6 20 60 0,0
17.04.2019 17:00:00 18,2 3,6 22,6 10,7 9,8 10 5 26 14 SE 1018,0 20 60 0,0
17.04.2019 16:00:00 17,2 4,8 20,6 10,4 9,8 11 6 25 14 SE 1018,4 20 60 0,0
17.04.2019 15:00:00 16,5 5,1 22,6 10,0 9,8 10 6 22 12 SE 1019,1 20 60 0,0
17.04.2019 14:00:00 15,4 7,9 17,1 9,6 9,8 5 3 19 11 ESE 1019,7 20 36 0,0
17.04.2019 13:00:00 14,8 7,6 19,5 9,3 9,8 9 5 18 10 SSE 1020,0 19 57 0,0
17.04.2019 12:00:00 13,7 6,8 19,8 9,1 9,8 8 4 20 11 S 1020,4 19 60 0,0
17.04.2019 11:00:00 12,8 7,9 17,5 9,0 9,8 8 4 18 10 SSE 1020,4 20 60 0,0
17.04.2019 10:00:00 11,6 8,4 14,7 9,0 9,8 7 4 13 7 SE 1020,3 19 60 0,0
17.04.2019 09:00:00 9,0 8,9 3,7 9,1 9,8 4 2 9 5 S 1020,5 16 52 0,0
17.04.2019 08:00:00 3,9 3,8 -0,7 9,2 9,8 0 0 2 1 N 1020,7 - 0 0,0
17.04.2019 07:00:00 2,7 2,4 -0,9 9,4 9,8 0 0 4 2 N 1020,5 - 0 0,0
17.04.2019 06:00:00 3,5 3,2 -1,5 9,5 9,8 2 1 3 2 S 1020,3 - 0 0,0
17.04.2019 05:00:00 3,6 3,3 -1,3 9,7 9,8 0 0 3 2 N 1020,1 - 0 0,0
17.04.2019 04:00:00 5,4 5,1 -0,1 9,8 9,8 2 1 7 4 SW 1020,0 - 0 0,0
17.04.2019 03:00:00 4,7 4,1 -0,7 9,9 9,8 0 0 3 2 N 1020,2 3,3 0 0,0
17.04.2019 02:00:00 6,5 5,9 1,1 10,0 9,8 0 0 5 3 N 1020,0 8 0 0,0
17.04.2019 01:00:00 8,0 7,1 4,5 10,1 9,8 4 2 9 5 SW 1019,9 12 0 0,0
17.04.2019 00:00:00 9,4 7,8 6,5 10,1 9,8 4 2 11 6 W 1019,5 15 0 0,0
16.04.2019 23:00:00 10,4 8,3 9,7 10,1 9,8 6 3 12 7 W 1019,4 20 0 0,0
16.04.2019 22:00:00 10,6 8,4 10,0 10,1 9,8 7 4 12 7 W 1019,2 19 0 0,0
16.04.2019 21:00:00 10,9 8,3 10,4 10,1 9,8 7 4 19 10 W 1018,7 18 0 0,0
16.04.2019 20:00:00 11,1 8,1 10,9 10,1 9,8 9 5 23 12 WNW 1018,0 13 0 0,0
16.04.2019 19:00:00 11,9 7,6 11,7 10,0 9,8 10 6 23 12 W 1017,4 20 0 0,0
16.04.2019 18:00:00 12,4 7,3 12,4 9,9 9,8 10 5 18 10 W 1016,8 20 0 0,0
16.04.2019 17:00:00 12,4 6,9 12,8 9,8 9,8 9 5 17 9 W 1016,3 19 0 0,0
16.04.2019 16:00:00 12,4 7,7 12,3 9,7 9,8 10 6 17 9 WSW 1016,2 16 0 0,0
16.04.2019 15:00:00 11,6 7,1 12,2 9,6 9,8 9 5 16 8 SW 1016,1 15 0 0,0
16.04.2019 14:00:00 11,3 7,4 12,3 9,4 9,8 6 4 12 7 WSW 1015,7 14 0 0,0
16.04.2019 13:00:00 10,8 7,3 11,8 9,3 9,8 5 3 13 7 WNW 1015,6 11 0 0,0
16.04.2019 12:00:00 10,0 7,1 10,1 9,3 9,8 6 3 14 8 W 1015,4 10 0 0,0
16.04.2019 11:00:00 9,4 7,2 8,7 9,2 9,8 10 5 16 9 W 1015,3 8 0 0,0
16.04.2019 10:00:00 8,9 7,0 8,4 9,2 9,8 9 5 21 11 WSW 1014,8 7 0 0,2
16.04.2019 09:00:00 9,2 6,1 7,7 9,2 9,8 9 5 18 10 WSW 1014,0 11 0 0,0
16.04.2019 08:00:00 8,4 5,7 6,7 9,2 9,8 10 5 18 10 WSW 1013,5 12 0 0,2
16.04.2019 07:00:00 8,5 4,3 6,7 9,3 9,8 8 4 15 8 SW 1013,0 15 0 0,0
16.04.2019 06:00:00 9,7 2,3 6,2 9,4 9,8 6 3 12 6 SSW 1012,6 20 0 0,0
16.04.2019 05:00:00 8,3 2,9 5,7 9,4 9,8 0 0 4 2 N 1012,5 20 0 0,0
16.04.2019 04:00:00 8,5 2,9 5,4 9,5 9,8 0 0 3 2 N 1012,5 20 0 0,0
16.04.2019 03:00:00 8,6 2,6 4,1 9,6 9,8 2 1 4 2 E 1012,5 20 0 0,0
16.04.2019 02:00:00 9,2 2,3 4,1 9,6 9,8 3 2 8 4 E 1012,7 20 0 0,0
16.04.2019 01:00:00 10,5 2,3 7,5 9,6 9,8 4 2 14 7 ESE 1013,0 20 0 0,0
16.04.2019 00:00:00 12,4 2,3 10,9 9,7 9,8 9 5 21 11 SE 1013,1 20 0 0,0
15.04.2019 23:00:00 12,3 2,2 5,3 9,7 9,8 8 5 16 9 E 1012,7 20 0 0,0
15.04.2019 22:00:00 11,5 2,2 7,1 9,8 9,8 6 3 9 5 E 1013,1 20 0 0,0
15.04.2019 21:00:00 12,2 2,1 9,0 9,7 9,8 6 3 16 9 E 1013,3 20 4 0,0
15.04.2019 20:00:00 14,0 2,2 12,9 9,7 9,8 9 5 32 18 ESE 1013,0 20 37 0,0
15.04.2019 19:00:00 14,4 2,0 15,4 9,6 9,8 16 9 35 19 E 1013,3 19 60 0,0
15.04.2019 18:00:00 14,3 1,5 14,3 9,4 9,9 16 9 33 18 ESE 1013,9 17 38 0,0
15.04.2019 17:00:00 14,7 0,9 17,7 9,1 9,8 17 9 41 22 ESE 1014,8 16 60 0,0
15.04.2019 16:00:00 14,1 -0,4 16,6 8,8 9,8 16 9 35 19 ESE 1015,6 18 60 0,0
15.04.2019 15:00:00 13,4 -1,8 17,0 8,5 9,8 17 9 36 19 ESE 1016,6 20 60 0,0
15.04.2019 14:00:00 13,6 -0,8 16,3 8,2 9,8 20 11 36 20 E 1017,4 19 60 0,0
15.04.2019 13:00:00 12,3 -1,3 14,5 8,0 9,8 21 11 37 20 ESE 1018,7 19 60 0,0
15.04.2019 12:00:00 11,0 -1,1 14,0 7,9 9,9 20 11 42 23 E 1020,2 18 60 0,0
15.04.2019 11:00:00 9,5 -0,7 12,2 7,8 9,9 19 10 33 18 ESE 1020,9 17 60 0,0
15.04.2019 10:00:00 7,8 1,0 8,7 7,9 9,9 14 7 25 14 E 1021,8 12 60 0,0
15.04.2019 09:00:00 5,5 -0,4 1,4 8,0 9,9 10 6 19 11 E 1022,5 10 60 0,0
15.04.2019 08:00:00 1,9 -1,5 -3,4 8,1 9,9 3 2 9 5 E 1022,9 8 5 0,0
15.04.2019 07:00:00 1,0 -2,1 -3,1 8,3 9,9 0 0 13 7 N 1023,0 8 0 0,0
15.04.2019 06:00:00 2,0 -2,0 -1,3 8,5 9,9 6 3 11 6 E 1022,8 10 0 0,0
15.04.2019 05:00:00 2,0 -2,2 -4,4 8,6 9,9 8 4 10 6 E 1023,1 13 0 0,0
15.04.2019 04:00:00 0,9 -2,2 -4,8 8,7 9,9 3 2 4 2 E 1023,7 12 0 0,0
15.04.2019 03:00:00 1,8 -2,7 -3,3 8,9 9,9 3 2 9 5 E 1024,0 14 0 0,0
15.04.2019 02:00:00 3,4 -2,8 -0,3 9,0 9,9 6 3 11 6 E 1024,3 16 0 0,0
15.04.2019 01:00:00 3,8 -2,6 0,1 9,2 9,9 6 4 10 5 E 1024,7 16 0 0,0
15.04.2019 00:00:00 4,3 -2,8 -0,5 9,4 9,9 5 3 9 5 E 1024,4 16 0 0,0
14.04.2019 23:00:00 4,6 -2,7 1,8 9,5 9,9 7 4 14 8 E 1024,4 17 0 0,0
14.04.2019 22:00:00 5,5 -3,1 3,3 9,6 9,9 8 4 20 11 E 1024,4 19 0 0,0
14.04.2019 21:00:00 6,6 -4,5 5,1 9,6 9,9 11 6 27 15 E 1023,4 20 12 0,0
14.04.2019 20:00:00 7,7 -5,1 7,7 9,5 9,9 14 8 26 14 E 1022,9 20 57 0,0
14.04.2019 19:00:00 8,5 -4,0 8,9 9,5 9,9 14 8 29 16 E 1022,7 19 27 0,0
14.04.2019 18:00:00 8,0 -4,5 9,5 9,3 9,9 18 10 29 16 NE 1022,6 19 46 0,0
14.04.2019 17:00:00 8,2 -4,6 9,2 9,1 9,9 12 7 28 15 NNE 1023,2 17 17 0,0
14.04.2019 16:00:00 7,7 -4,4 10,1 8,8 9,9 18 10 29 15 NE 1022,4 19 27 0,0
14.04.2019 15:00:00 8,2 -3,7 12,0 8,6 9,9 13 7 28 15 NNE 1022,5 18 53 0,0
14.04.2019 14:00:00 7,9 -3,6 9,4 8,3 9,9 10 5 25 14 ENE 1022,6 20 51 0,0
14.04.2019 13:00:00 7,6 -1,9 13,2 8,0 9,9 12 7 25 14 ENE 1023,1 19 60 0,0
14.04.2019 12:00:00 6,2 -3,2 10,4 7,9 9,9 13 7 23 12 NNE 1023,5 19 60 0,0
14.04.2019 11:00:00 5,4 -1,5 9,6 7,9 9,9 11 6 18 10 NE 1023,5 18 60 0,0
14.04.2019 10:00:00 3,8 -1,2 7,1 8,0 9,9 9 5 16 8 ENE 1023,5 13 60 0,0
14.04.2019 09:00:00 2,2 -1,1 0,7 8,1 9,9 7 4 15 8 NNE 1023,4 10 60 0,0
14.04.2019 08:00:00 0,2 -2,0 -4,2 8,3 9,9 5 3 9 5 NE 1023,5 8 31 0,0
14.04.2019 07:00:00 -0,7 -2,8 -4,8 8,5 9,9 4 2 8 4 N 1023,1 9 0 0,0
14.04.2019 06:00:00 -0,1 -2,8 -3,5 8,6 9,9 4 2 10 5 NNE 1023,2 11 0 0,0
14.04.2019 05:00:00 0,4 -2,7 -2,7 8,7 9,9 4 2 11 6 NNE 1023,2 13 0 0,0
14.04.2019 04:00:00 1,0 -2,8 -1,0 8,9 9,9 6 3 14 8 NNE 1023,0 17 0 0,0
14.04.2019 03:00:00 1,8 -2,9 -0,3 9,0 9,9 8 4 14 8 NNE 1023,1 19 0 0,0
14.04.2019 02:00:00 1,9 -3,4 0,1 9,2 9,9 7 4 14 8 NNE 1023,7 19 0 0,0
14.04.2019 01:00:00 2,6 -4,0 0,2 9,3 9,9 6 4 13 7 NNE 1023,7 20 0 0,0
14.04.2019 00:00:00 3,3 -4,4 -0,1 9,5 9,9 6 3 11 6 NNE 1023,7 20 0 0,0
13.04.2019 23:00:00 4,2 -4,8 1,6 9,6 9,9 7 4 16 9 NNE 1023,7 20 0 0,0
13.04.2019 22:00:00 5,1 -5,9 2,4 9,7 9,9 8 4 14 7 NE 1023,7 20 0 0,0
13.04.2019 21:00:00 6,0 -6,6 4,0 9,7 9,9 9 5 24 13 NNE 1023,5 20 23 0,0
13.04.2019 20:00:00 7,3 -6,5 7,8 9,7 9,9 11 6 32 17 NNE 1023,2 20 60 0,0
13.04.2019 19:00:00 8,2 -7,1 10,7 9,6 9,9 16 9 31 17 NNE 1023,0 20 60 0,0
13.04.2019 18:00:00 8,8 -5,5 8,6 9,5 9,9 14 8 31 17 NE 1023,0 20 42 0,0
13.04.2019 17:00:00 8,8 -4,8 9,6 9,3 9,9 14 8 29 15 NE 1023,0 20 37 0,0
13.04.2019 16:00:00 8,3 -4,9 10,6 9,0 9,9 15 8 31 17 NNE 1023,5 19 44 0,0
13.04.2019 15:00:00 8,5 -4,4 13,5 8,8 9,9 17 9 39 21 NE 1023,9 20 60 0,0
13.04.2019 14:00:00 8,4 -4,8 13,0 8,6 9,9 14 8 36 19 NE 1023,8 20 60 0,0
13.04.2019 13:00:00 7,2 -6,2 8,3 8,5 9,9 17 9 37 20 NE 1024,4 19 57 0,0
13.04.2019 12:00:00 6,3 -5,4 5,6 8,4 9,9 17 9 33 18 NE 1025,0 18 41 0,0
13.04.2019 11:00:00 4,5 -3,8 6,5 8,5 10,0 16 8 31 17 ENE 1025,3 16 49 0,0
13.04.2019 10:00:00 3,9 -2,3 6,7 8,6 9,9 16 8 27 15 NE 1025,3 17 60 0,0
13.04.2019 09:00:00 2,2 -2,1 1,6 8,7 9,9 10 5 16 9 NNE 1025,2 15 60 0,0
13.04.2019 08:00:00 0,8 -3,0 -1,5 8,8 10,0 6 3 12 7 NNE 1025,1 15 33 0,0
13.04.2019 07:00:00 0,5 -3,6 -2,9 9,0 9,9 8 4 13 7 NNE 1024,8 19 0 0,0
13.04.2019 06:00:00 0,8 -4,1 -5,2 9,1 9,9 5 3 8 5 N 1024,7 20 0 0,0
13.04.2019 05:00:00 1,3 -4,0 -4,7 9,4 9,9 3 2 9 5 NNE 1024,6 20 0 0,0
13.04.2019 04:00:00 1,6 -3,9 -4,7 9,5 10,0 4 2 8 5 N 1024,5 20 0 0,0

tt = Température de l'air
td = dewpoint
tt 5cm = Température de l'air 5cm
tt -20cm = Température de l'air -20cm
tt -100cm = Température de l'air -100cm
ff = Vitesse du vent
fx = gusts
dd = Direction du vent
ppp = reduced air pressure
vv = visibility
sd = Ensoleillement
rr = Quantités de précipitations

stations d'obs. à proximité